FW8143 Weather Reports


Display with metric or nautical units.
time (UTC)temp
F
wind
direction
speed
MPH
gust
MPH
rain 1hr
in
rain 24hr
in
rain mn
in
humidity
%
barometer
mb
20260506120802 33 192 1.0 6.0 0.00 0.17 0.01 93 1020.4
20260506120257 33 137 2.0 9.0 0.00 0.17 0.01 93 1020.4
20260506115750 33 145 2.0 9.0 0.00 0.17 0.01 93 1020.3
20260506115507 33 211 2.0 9.0 0.00 0.17 0.01 93 1020.4
20260506114739 33 243 3.0 9.0 0.00 0.17 0.01 93 1020.4
20260506114233 33 253 2.0 5.0 0.00 0.17 0.01 93 1020.3
20260506113952 33 227 2.0 6.0 0.00 0.17 0.01 93 1020.1
20260506113242 33 61 1.0 7.0 0.00 0.17 0.01 92 1020.1
20260506113220 33 248 2.0 6.0 0.00 0.17 0.01 92 1020.1
20260506112910 33 86 1.0 7.0 0.00 0.17 0.01 92 1020.0
20260506112146 33 194 2.0 7.0 0.00 0.17 0.01 92 1019.8
20260506111156 33 146 2.0 7.0 0.00 0.17 0.01 92 1019.6
20260506110911 33 150 1.0 4.0 0.00 0.17 0.01 92 1019.8
20260506110410 34 237 1.0 4.0 0.00 0.17 0.01 92 1019.9
20260506105900 34 355 0.0 3.0 0.00 0.17 0.01 92 1019.9
20260506105133 34 227 0.0 2.0 0.00 0.17 0.01 92 1019.9
20260506104856 34 227 0.0 3.0 0.00 0.17 0.01 92 1019.8
20260506104133 34 219 1.0 7.0 0.00 0.17 0.01 92 1019.8
20260506103633 34 209 1.0 7.0 0.00 0.17 0.01 92 1019.6
20260506103132 34 201 1.0 7.0 0.00 0.17 0.01 92 1019.8
20260506102633 34 251 1.0 7.0 0.00 0.17 0.01 92 1019.8
20260506102133 35 266 0.0 3.0 0.00 0.17 0.01 92 1019.8
20260506101633 35 221 1.0 3.0 0.00 0.17 0.01 92 1019.8
20260506101612 35 238 1.0 3.0 0.00 0.17 0.01 93 1019.9
20260506100633 35 238 2.0 3.0 0.00 0.17 0.01 93 1019.9
20260506100133 35 222 2.0 5.0 0.01 0.17 0.01 93 1019.9
20260506095633 35 243 2.0 5.0 0.01 0.17 0.01 93 1020.0
20260506095128 35 265 2.0 5.0 0.01 0.17 0.01 93 1019.9
20260506094630 35 240 2.0 5.0 0.01 0.17 0.01 93 1019.9
20260506094355 35 224 3.0 5.0 0.01 0.17 0.01 93 1019.9
20260506093628 35 248 2.0 5.0 0.01 0.17 0.01 93 1019.9
20260506093129 35 238 2.0 9.0 0.01 0.17 0.01 93 1019.9
20260506092629 35 247 1.0 9.0 0.01 0.17 0.01 93 1019.9
20260506092129 35 247 2.0 10.0 0.01 0.17 0.01 93 1019.9
20260506091629 35 253 2.0 10.0 0.01 0.17 0.01 93 1019.9
20260506091131 35 244 2.0 6.0 0.01 0.17 0.01 93 1019.9
20260506090848 35 258 1.0 4.0 0.01 0.17 0.01 93 1019.9
20260506090129 35 259 1.0 3.0 0.00 0.16 0.00 92 1019.9
20260506085630 35 252 1.0 3.0 0.00 0.16 0.00 92 1019.9
20260506085128 35 234 2.0 4.0 0.00 0.16 0.00 92 1019.8
20260506084629 35 213 1.0 4.0 0.00 0.16 0.00 92 1019.9
20260506084349 35 161 1.0 3.0 0.00 0.16 0.00 92 1019.8
20260506083849 35 148 1.0 4.0 0.00 0.16 0.00 92 1019.8
20260506083130 35 80 2.0 5.0 0.00 0.16 0.00 92 1019.8
20260506082627 35 286 1.0 5.0 0.00 0.16 0.00 92 1019.8
20260506082121 35 96 2.0 4.0 0.00 0.16 0.00 92 1019.6
20260506081841 35 93 2.0 4.0 0.00 0.16 0.00 92 1019.9
20260506081111 35 134 2.0 4.0 0.00 0.16 0.00 92 1019.9
20260506080605 36 137 2.0 4.0 0.00 0.16 0.00 92 1019.9
20260506073032 36 348 3.0 13.0 0.00 0.16 0.00 92 1020.4
20260506072751 36 260 2.0 13.0 0.00 0.16 0.00 92 1020.5
20260506072032 36 12 1.0 4.0 0.00 0.16 0.00 92 1020.4
20260506071534 37 90 1.0 4.0 0.00 0.16 0.00 92 1020.3
20260506071030 37 76 1.0 4.0 0.00 0.16 0.00 92 1020.3
20260506070529 37 149 2.0 9.0 0.00 0.16 0.00 93 1020.3
20260506062026 38 109 2.0 5.0 0.00 0.16 0.00 91 1020.3
20260506061526 38 70 2.0 4.0 0.00 0.16 0.00 91 1020.3
20260506061026 38 38 2.0 4.0 0.00 0.16 0.00 92 1020.3
20260506060524 38 57 2.0 4.0 0.00 0.16 0.00 92 1020.4
20260506051014 39 347 3.0 9.0 0.03 0.16 0.16 92 1020.9
20260506051005 39 298 3.0 9.0 0.03 0.16 0.16 92 1020.9
20260506045014 39 306 1.0 7.0 0.02 0.15 0.15 92 1020.8
20260506044515 39 204 1.0 7.0 0.01 0.14 0.15 92 1020.4
20260506044015 39 196 2.0 8.0 0.01 0.14 0.14 92 1020.8
20260506043515 39 101 2.0 8.0 0.01 0.14 0.14 91 1020.1
20260506043014 39 107 2.0 6.0 0.01 0.14 0.14 91 1020.0
20260506042736 39 73 3.0 6.0 0.01 0.14 0.14 91 1019.9
20260506042240 39 76 3.0 8.0 0.01 0.14 0.14 91 1019.8
20260506041514 39 71 4.0 10.0 0.01 0.14 0.14 91 1019.4
20260506041014 39 41 5.0 10.0 0.00 0.13 0.13 91 1019.8
20260506040512 39 38 5.0 10.0 0.00 0.13 0.13 91 1019.6
20260506040231 39 37 5.0 10.0 0.01 0.13 0.13 91 1019.9
20260506035513 40 5 5.0 9.0 0.02 0.13 0.13 91 1019.9
20260506035012 40 5 8.0 14.0 0.03 0.13 0.13 91 1019.9
20260506034511 40 47 9.0 14.0 0.04 0.13 0.13 91 1020.0
20260506034006 40 5 8.0 13.0 0.04 0.13 0.13 91 1020.1
20260506033506 40 11 7.0 13.0 0.04 0.13 0.13 91 1020.3
20260506033007 40 335 6.0 13.0 0.05 0.13 0.13 91 1020.3
20260506032507 40 306 7.0 14.0 0.05 0.13 0.13 90 1020.3
20260506032227 40 298 8.0 14.0 0.05 0.13 0.13 90 1020.1
20260506031733 40 17 8.0 15.0 0.05 0.13 0.13 90 1020.0
20260506031223 40 327 9.0 17.0 0.05 0.13 0.13 89 1019.9
20260506030505 41 355 9.0 17.0 0.05 0.13 0.13 89 1019.8
20260506030004 41 293 9.0 15.0 0.04 0.12 0.12 89 1019.9
20260506025505 42 302 8.0 15.0 0.03 0.11 0.11 89 1019.8
20260506025004 42 10 9.0 15.0 0.02 0.10 0.10 89 1019.6
20260506024504 42 301 9.0 15.0 0.02 0.09 0.09 88 1018.7
20260506024225 42 17 7.0 13.0 0.03 0.09 0.09 88 1018.0
20260506023505 42 16 5.0 10.0 0.05 0.09 0.09 87 1017.9
20260506023006 42 19 4.0 6.0 0.06 0.08 0.08 87 1017.9
20260506022504 42 47 5.0 10.0 0.08 0.08 0.08 86 1017.9
20260506022004 42 26 6.0 10.0 0.08 0.08 0.08 86 1018.0
20260506021503 42 28 5.0 9.0 0.08 0.08 0.08 85 1018.0
20260506020958 42 5 4.0 7.0 0.08 0.08 0.08 85 1018.1
20260506020451 43 49 4.0 8.0 0.08 0.08 0.08 85 1018.0
20260506015945 43 27 5.0 11.0 0.08 0.08 0.08 85 1018.0
20260506015440 43 0 8.0 19.0 0.08 0.08 0.08 85 1017.7
20260506014934 43 19 9.0 19.0 0.08 0.08 0.08 85 1017.6
20260506014428 44 307 11.0 27.0 0.07 0.07 0.07 82 1018.4
20260506013922 45 279 13.0 27.0 0.06 0.06 0.06 77 1018.4
20260506013635 47 290 12.0 29.0 0.03 0.03 0.04 70 1018.2
20260506012910 50 182 10.0 29.0 0.01 0.01 0.02 62 1017.7
20260506012627 52 285 7.0 15.0 0.00 0.00 0.00 52 1017.1
20260506011858 53 261 7.0 14.0 0.00 0.00 0.00 50 1016.6
20260506011351 53 244 7.0 15.0 0.00 0.00 0.00 47 1016.5
20260506011107 53 234 7.0 15.0 0.00 0.00 0.00 46 1016.7
20260506010340 54 216 6.0 12.0 0.00 0.00 0.00 45 1016.9
20260506010257 56 262 8.0 18.0 0.00 0.00 0.00 44 1016.7
20260506005915 55 225 6.0 11.0 0.00 0.00 0.00 45 1016.7
20260506004822 56 307 10.0 18.0 0.00 0.00 0.00 42 1016.7
20260506004316 57 273 10.0 18.0 0.00 0.00 0.00 41 1016.7
20260506004033 58 252 9.0 18.0 0.00 0.00 0.00 40 1016.7
20260506003304 58 243 8.0 17.0 0.00 0.00 0.00 42 1016.7
20260506002959 58 252 7.0 14.0 0.00 0.00 0.00 42 1016.7
20260506002842 58 212 8.0 17.0 0.00 0.00 0.00 42 1016.7
20260506002226 58 237 9.0 18.0 0.00 0.00 0.00 42 1016.7
20260506001239 58 170 10.0 18.0 0.00 0.00 0.00 42 1016.7
20260506000734 58 269 10.0 17.0 0.00 0.00 0.00 43 1016.6
20260506000228 58 213 11.0 24.0 0.00 0.00 0.00 43 1016.7
20260505235721 57 0 12.0 24.0 0.00 0.00 0.00 45 1016.7
20260505235438 57 213 10.0 23.0 0.00 0.00 0.00 44 1016.7
20260505234709 57 280 9.0 16.0 0.00 0.00 0.00 46 1016.7
20260505234428 55 259 11.0 19.0 0.00 0.00 0.00 47 1016.6
20260505233658 54 252 12.0 19.0 0.00 0.00 0.00 49 1016.7
20260505233152 54 200 11.0 19.0 0.00 0.00 0.00 48 1016.7
20260505232645 54 207 10.0 22.0 0.00 0.00 0.00 48 1016.9
20260505232140 55 184 12.0 23.0 0.00 0.00 0.00 47 1016.7
20260505231633 55 231 11.0 23.0 0.00 0.00 0.00 46 1016.7
20260505231127 56 268 12.0 24.0 0.00 0.00 0.00 46 1016.6
20260505230842 56 205 11.0 24.0 0.00 0.00 0.00 46 1016.6
20260505230115 56 189 11.0 25.0 0.00 0.00 0.00 46 1016.5
20260505225609 56 197 10.0 25.0 0.00 0.00 0.00 45 1016.6
20260505225104 56 246 8.0 21.0 0.00 0.00 0.00 46 1016.5
20260505224558 56 233 12.0 23.0 0.00 0.00 0.00 45 1016.4
20260505224052 57 157 12.0 24.0 0.00 0.00 0.00 44 1016.6
20260505223546 57 140 10.0 24.0 0.00 0.00 0.00 43 1016.4
20260505223040 58 241 10.0 20.0 0.00 0.00 0.00 42 1016.6
20260505222534 58 139 9.0 19.0 0.00 0.00 0.00 41 1016.6
20260505222253 59 217 9.0 21.0 0.00 0.00 0.00 41 1016.6
20260505221522 59 203 9.0 21.0 0.00 0.00 0.00 41 1016.6
20260505221016 60 267 9.0 17.0 0.00 0.00 0.00 39 1016.6
20260505220509 61 257 11.0 20.0 0.00 0.00 0.00 39 1016.7
20260505220004 61 226 9.0 20.0 0.00 0.00 0.00 38 1016.6
20260505215458 61 291 7.0 18.0 0.00 0.00 0.00 39 1016.7
20260505215211 61 215 9.0 18.0 0.00 0.00 0.00 41 1016.6
20260505214445 61 207 9.0 18.0 0.00 0.00 0.00 39 1016.7
20260505213939 60 222 8.0 18.0 0.00 0.00 0.00 41 1016.9
20260505213434 60 215 8.0 19.0 0.00 0.00 0.00 41 1017.0
20260505213152 61 258 10.0 19.0 0.00 0.00 0.00 40 1017.4
20260505212422 62 313 10.0 17.0 0.00 0.00 0.00 39 1017.4
20260505211922 61 217 10.0 17.0 0.00 0.00 0.00 41 1017.2
20260505211422 61 257 10.0 20.0 0.00 0.00 0.00 41 1017.4
20260505210923 60 215 10.0 20.0 0.00 0.00 0.00 42 1017.5
20260505210421 60 217 9.0 18.0 0.00 0.00 0.00 43 1017.6
20260505205922 59 250 9.0 20.0 0.00 0.00 0.00 43 1017.6
20260505205644 59 244 9.0 20.0 0.00 0.00 0.00 43 1017.7
20260505204922 59 234 9.0 16.0 0.00 0.00 0.00 44 1017.9
20260505204423 58 241 9.0 20.0 0.00 0.00 0.00 46 1017.9
20260505203921 57 233 9.0 20.0 0.00 0.00 0.00 46 1018.1
20260505203422 57 288 7.0 16.0 0.00 0.00 0.00 48 1018.1
20260505203145 57 282 7.0 16.0 0.00 0.00 0.00 47 1018.2
20260505202422 57 257 9.0 17.0 0.00 0.00 0.00 47 1018.2
20260505201922 56 273 8.0 17.0 0.00 0.00 0.00 48 1018.2
20260505201422 55 246 8.0 18.0 0.00 0.00 0.00 51 1018.1
20260505200921 55 242 8.0 18.0 0.00 0.00 0.00 50 1018.2
20260505200421 55 203 9.0 20.0 0.00 0.00 0.00 51 1018.2
20260505195920 55 237 10.0 23.0 0.00 0.00 0.00 49 1018.1
20260505195420 55 272 10.0 23.0 0.00 0.00 0.00 49 1018.1
20260505194920 55 232 10.0 24.0 0.00 0.00 0.00 50 1018.1
20260505194420 56 266 9.0 24.0 0.00 0.00 0.00 49 1018.1
20260505193920 56 255 9.0 16.0 0.00 0.00 0.00 48 1018.1
20260505193645 56 259 9.0 17.0 0.00 0.00 0.00 48 1018.1
20260505193144 56 257 9.0 17.0 0.00 0.00 0.00 47 1018.0
20260505192419 56 240 10.0 16.0 0.00 0.00 0.00 47 1018.0
20260505191919 56 240 10.0 18.0 0.00 0.00 0.00 46 1018.1
20260505191417 56 265 10.0 18.0 0.00 0.00 0.00 45 1018.0
20260505190918 56 235 9.0 19.0 0.00 0.00 0.00 44 1018.1
20260505190635 57 209 10.0 19.0 0.00 0.00 0.00 45 1018.1
20260505185916 58 185 10.0 18.0 0.00 0.00 0.00 44 1018.1
20260505185415 58 234 9.0 17.0 0.00 0.00 0.00 41 1018.0
20260505184916 58 214 10.0 19.0 0.00 0.00 0.00 40 1017.9
20260505184641 59 197 8.0 19.0 0.00 0.00 0.00 39 1018.0
20260505183915 59 281 7.0 14.0 0.00 0.00 0.00 38 1018.1
20260505183415 59 214 8.0 17.0 0.00 0.00 0.00 38 1018.1
20260505183136 60 254 7.0 17.0 0.00 0.00 0.00 36 1018.1
20260505182723 61 256 7.0 17.0 0.00 0.00 0.00 35 1018.0
20260505182619 60 244 7.0 16.0 0.00 0.00 0.00 37 1017.9
20260505181412 59 200 6.0 16.0 0.00 0.00 0.00 39 1017.7
20260505180914 58 269 6.0 12.0 0.00 0.00 0.00 39 1017.9
20260505180638 57 171 6.0 12.0 0.00 0.00 0.00 40 1018.0
20260505175911 56 227 5.0 10.0 0.00 0.00 0.00 41 1018.0
20260505175412 56 173 5.0 15.0 0.00 0.00 0.00 41 1018.1
20260505174913 56 287 5.0 15.0 0.00 0.00 0.00 40 1018.5
20260505174412 56 198 4.0 14.0 0.00 0.00 0.00 41 1018.6
20260505173911 56 165 4.0 9.0 0.00 0.00 0.00 41 1018.6
20260505173849 56 310 3.0 9.0 0.00 0.00 0.00 41 1018.6
20260505172908 56 115 4.0 10.0 0.00 0.00 0.00 40 1018.5
20260505172406 56 234 5.0 10.0 0.00 0.00 0.00 40 1018.5
20260505171900 55 231 3.0 8.0 0.00 0.00 0.00 41 1018.5
20260505171355 55 295 4.0 11.0 0.00 0.00 0.00 42 1018.6
20260505171110 54 263 4.0 11.0 0.00 0.00 0.00 43 1018.6
20260505170343 54 221 3.0 12.0 0.00 0.00 0.00 43 1018.6
20260505165836 53 161 5.0 12.0 0.00 0.00 0.00 43 1018.7
20260505165331 53 271 5.0 10.0 0.00 0.00 0.00 44 1018.7
20260505164825 52 200 5.0 10.0 0.00 0.00 0.00 45 1018.9
20260505164318 52 238 4.0 10.0 0.00 0.00 0.00 46 1018.9
20260505163812 52 259 5.0 10.0 0.00 0.00 0.00 47 1019.0
20260505163307 51 211 6.0 11.0 0.00 0.00 0.00 47 1019.0
20260505162800 51 232 5.0 11.0 0.00 0.00 0.00 47 1019.0
20260505162255 50 259 4.0 10.0 0.00 0.00 0.00 48 1019.0
20260505161749 50 271 5.0 12.0 0.00 0.00 0.00 47 1019.0
20260505161505 50 180 6.0 15.0 0.00 0.00 0.00 49 1019.2
20260505160737 50 286 7.0 15.0 0.00 0.00 0.00 48 1019.2
20260505160231 50 265 5.0 14.0 0.00 0.00 0.00 48 1019.2
20260505152646 49 260 3.0 9.0 0.00 0.00 0.00 49 1019.2
20260505152141 49 355 4.0 9.0 0.00 0.00 0.00 48 1019.2
20260505151635 49 227 4.0 9.0 0.00 0.00 0.00 49 1019.2
20260505151128 49 277 4.0 9.0 0.00 0.00 0.00 49 1019.2
20260505150623 49 250 5.0 12.0 0.00 0.00 0.00 49 1019.4
20260505150117 50 192 7.0 14.0 0.00 0.00 0.00 48 1019.4
20260505140511 50 17 6.0 13.0 0.00 0.00 0.00 50 1019.2
20260505124619 47 239 4.0 9.0 0.00 0.00 0.00 46 1019.5
20260505124111 47 281 4.0 8.0 0.00 0.00 0.00 46 1019.5
20260505123353 47 322 4.0 8.0 0.00 0.00 0.00 45 1019.4
20260505122853 47 17 3.0 8.0 0.00 0.00 0.00 45 1019.4
20260505122354 47 344 3.0 9.0 0.00 0.00 0.00 44 1019.4
20260505122115 47 267 5.0 12.0 0.00 0.00 0.00 44 1019.1
20260505121614 47 246 5.0 12.0 0.00 0.00 0.00 44 1019.1